Home   Weather   Mobile   Past weeks

Flag for USA Past Weather in Mobile, Alabama, USA — Yesterday and Last 2 Weeks

Now
67 °F

Clear.


Feels Like: 67 °F
Forecast: 66 / 80 °F
Wind: 3 mph from North

Location: Mobile Downtown Airport

Current Time: Apr 25, 2017 at 11:20:05 pm

Latest Report: Apr 25, 2017 at 10:53 pm


Visibility: 10 mi

Pressure: 29.81 "Hg

Humidity: 76%

Dew Point: 59 °F

Location of MobileLocation

Past Weather in Mobile — Graph

°F

Mobile Temperature Yesterday

Maximum temperature yesterday: 75 °F (at 1:53 pm)
Minimum temperature yesterday: 55 °F (at 5:30 am)
Average temperature yesterday: 64 °F

High & Low Weather Summary for the Past Weeks

 TemperatureHumidityPressure
High82 °F (Apr 13, 12:53 pm)100% (Apr 11, 1:53 am)30.28 "Hg (Apr 11, 1:53 am)
Low54 °F (Apr 25, 5:53 am)41% (Apr 25, 3:53 pm)29.77 "Hg (Apr 25, 5:53 pm)
Average71 °F81%30.09 "Hg
* Reported Apr 10 9:53 pm — Apr 25 9:53 pm, Mobile, Weather by CustomWeather, © 2017

Note: Actual official high and low records may vary slightly from our data, if they occured in-between our weather recording intervals... More about our weather records

Advertising

Mobile Weather History for the Previous 24 Hours

Scroll right to see more
 ConditionsComfort  
Time TempWeatherWind HumidityBarometerVisibility
9:53 pm
Tue, Apr 25
67 °FClear.5 mph76%29.80 "Hg10 mi
8:53 pm68 °FClear.No wind73%29.79 "Hg10 mi
7:53 pm70 °FClear.5 mph66%29.78 "Hg10 mi
6:53 pm73 °FSunny.7 mph62%29.78 "Hg10 mi
5:53 pm76 °FSunny.7 mph50%29.77 "Hg10 mi
4:53 pm77 °FSunny.8 mph47%29.78 "Hg10 mi
3:53 pm80 °FSunny.10 mph41%29.78 "Hg10 mi
2:53 pm80 °FPassing clouds.9 mph42%29.80 "Hg10 mi
1:53 pm78 °FScattered clouds.12 mph50%29.81 "Hg10 mi
12:53 pm77 °FScattered clouds.14 mph60%29.83 "Hg10 mi
11:53 am75 °FScattered clouds.12 mph69%29.84 "Hg10 mi
10:53 am74 °FPartly sunny.12 mph69%29.85 "Hg10 mi
9:53 am71 °FPassing clouds.6 mph73%29.85 "Hg10 mi
8:53 am69 °FSunny.5 mph76%29.85 "Hg10 mi
7:53 am65 °FSunny.No wind87%29.84 "Hg10 mi
6:53 am57 °FSunny.No wind96%29.83 "Hg10 mi
5:53 am54 °FClear.3 mph100%29.82 "Hg10 mi
4:53 am56 °FClear.No wind97%29.81 "Hg10 mi
3:53 am55 °FClear.No wind100%29.80 "Hg10 mi
3:16 am56 °FClear.No wind97%29.81 "Hg10 mi
2:53 am56 °FClear.No wind100%29.81 "Hg10 mi
1:53 am58 °FClear.5 mph93%29.81 "Hg10 mi
12:53 am59 °FClear.5 mph93%29.83 "Hg10 mi
11:53 pm
Mon, Apr 24
57 °FClear.3 mph90%29.83 "Hg10 mi
Weather by CustomWeather, © 2017

See weather overviewHow to use our weather pages